Date String (YYYY-MM-DD hh:mm:ss) UTC,Instrument flags,absolute air pressure of the measurement (hPa),sample flow rate (lpm),inlet stack bypass flow (lpm),air temperature of the measurement (°C),ambient temperature measured by the external sensor (°C),aerosol sample conditioner tube jacket temperature (°C),OPC LED temperature (°C),internal box temperature (°C),relative humidity of the measurement (%),span deviation,mass concentration of particles derived from Lorenz-Mie calculation of OPC scattering (μg/m³),mass concentration of particles derived from Lorenz-Mie calculation of OPC scattering (μg/m³),mass concentration of particles derived from Lorenz-Mie calculation of OPC scattering (μg/m³)
DateTimeUTC,F1_M11,P_M11,Q1_M11,Q2_M11,T1_M11,T2_M11,T3_M11,T4_M11,T5_M11,U1_M11,ZSPAN_M11,X0_M11,X2_M11,X1_M11
2024-05-22 01:00:00,SystemResetWarning,0827.1,5.00,000.00,027.3,026.4,000.0,035.7,029.1,012.1,0000.0,0003.07,0001.28,0000.93
2024-05-22 01:01:00,SystemResetWarning,0827.1,5.01,000.00,027.3,026.4,000.0,035.7,029.1,012.0,0000.0,0003.41,0001.27,0000.89
2024-05-22 01:02:00,SystemResetWarning,0827.1,5.02,000.00,027.3,026.4,000.0,035.7,029.1,012.2,0000.0,0004.65,0001.24,0000.86
2024-05-22 01:03:00,SystemResetWarning,0827.1,5.00,000.00,027.3,026.4,000.0,035.7,029.1,012.3,0000.0,0004.07,0001.22,0000.84
2024-05-22 01:04:00,SystemResetWarning,0827.1,4.99,000.00,027.3,026.4,000.0,035.7,029.1,012.1,0000.0,0003.98,0001.20,0000.83
2024-05-22 01:05:00,SystemResetWarning,0827.2,4.99,000.00,027.3,026.4,000.0,035.7,029.1,012.0,0000.0,0003.77,0001.21,0000.83
2024-05-22 01:06:00,SystemResetWarning,0827.1,5.00,000.00,027.3,026.4,000.0,035.7,029.1,012.2,0000.0,0003.68,0001.17,0000.83
2024-05-22 01:07:00,SystemResetWarning,0827.2,5.01,000.00,027.3,026.4,000.0,035.7,029.2,012.1,0000.0,0003.80,0001.21,0000.84
2024-05-22 01:08:00,SystemResetWarning,0827.2,4.99,000.00,027.3,026.4,000.0,035.7,029.2,012.2,0000.0,0003.79,0001.20,0000.83
2024-05-22 01:09:00,SystemResetWarning,0827.2,4.99,000.00,027.3,026.5,000.0,035.7,029.1,012.4,0000.0,0003.84,0001.21,0000.83
2024-05-22 01:10:00,SystemResetWarning,0827.2,5.00,000.00,027.3,026.5,000.0,035.7,029.1,012.5,0000.0,0003.72,0001.17,0000.82
2024-05-22 01:11:00,SystemResetWarning,0827.2,5.00,000.00,027.3,026.5,000.0,035.7,029.1,012.6,0000.0,0003.66,0001.14,0000.82
2024-05-22 01:12:00,SystemResetWarning,0827.1,5.01,000.00,027.3,026.5,000.0,035.7,029.1,012.5,0000.0,0003.69,0001.15,0000.82
2024-05-22 01:13:00,SystemResetWarning,0827.1,5.01,000.00,027.3,026.5,000.0,035.6,029.1,012.7,0000.0,0002.09,0001.13,0000.84
2024-05-22 01:14:00,SystemResetWarning,0827.2,5.00,000.00,027.3,026.5,000.0,035.6,029.1,012.7,0000.0,0002.05,0001.13,0000.84
2024-05-22 01:15:00,SystemResetWarning,0827.2,4.99,000.00,027.3,026.5,000.0,035.6,029.1,012.7,0000.0,0002.04,0001.13,0000.84
2024-05-22 01:16:00,SystemResetWarning,0827.2,4.99,000.00,027.3,026.6,000.0,035.6,029.1,012.7,0000.0,0001.81,0001.12,0000.83
2024-05-22 01:17:00,SystemResetWarning,0827.2,5.00,000.00,027.3,026.6,000.0,035.6,029.1,012.8,0000.0,0001.84,0001.13,0000.83
2024-05-22 01:18:00,SystemResetWarning,0827.2,5.02,000.00,027.3,026.6,000.0,035.7,029.1,012.5,0000.0,0001.74,0001.10,0000.83
2024-05-22 01:19:00,SystemResetWarning,0827.3,4.98,000.00,027.3,026.5,000.0,035.7,029.1,012.0,0000.0,0001.77,0001.13,0000.85
2024-05-22 01:20:00,SystemResetWarning,0827.2,4.99,000.00,027.3,026.5,000.0,035.7,029.1,011.2,0000.0,0001.63,0001.09,0000.86
2024-05-22 01:21:00,SystemResetWarning,0827.3,5.01,000.00,027.3,026.5,000.0,035.7,029.1,011.1,0000.0,0001.67,0001.10,0000.88
2024-05-22 01:22:00,SystemResetWarning,0827.2,5.01,000.00,027.3,026.5,000.0,035.7,029.1,011.6,0000.0,0001.74,0001.12,0000.89
2024-05-22 01:23:00,SystemResetWarning,0827.2,5.00,000.00,027.3,026.5,000.0,035.6,029.1,011.7,0000.0,0001.55,0001.09,0000.89
2024-05-22 01:24:00,SystemResetWarning,0827.2,5.00,000.00,027.3,026.5,000.0,035.6,029.1,011.5,0000.0,0001.57,0001.10,0000.89
2024-05-22 01:25:00,SystemResetWarning,0827.2,5.00,000.00,027.3,026.5,000.0,035.7,029.1,011.7,0000.0,0001.56,0001.10,0000.89
2024-05-22 01:26:00,SystemResetWarning,0827.2,5.00,000.00,027.3,026.5,000.0,035.6,029.1,011.8,0000.0,0001.57,0001.09,0000.90
2024-05-22 01:27:00,SystemResetWarning,0827.2,5.00,000.00,027.3,026.5,000.0,035.6,029.1,011.8,0000.0,0001.61,0001.09,0000.90
2024-05-22 01:28:00,SystemResetWarning,0827.2,4.99,000.00,027.3,026.5,000.0,035.6,029.1,012.0,0000.0,0001.59,0001.09,0000.91
2024-05-22 01:29:00,SystemResetWarning,0827.2,5.00,000.00,027.3,026.5,000.0,035.6,029.1,011.9,0000.0,0001.63,0001.11,0000.93
2024-05-22 01:30:00,SystemResetWarning,0827.3,5.00,000.00,027.3,026.5,000.0,035.6,029.1,011.9,0000.0,0001.75,0001.15,0000.92
2024-05-22 01:31:00,SystemResetWarning,0827.3,5.00,000.00,027.3,026.6,000.0,035.7,029.2,011.6,0000.0,0001.78,0001.15,0000.92
2024-05-22 01:32:00,SystemResetWarning,0827.4,5.00,000.00,027.3,026.6,000.0,035.7,029.2,011.7,0000.0,0001.78,0001.15,0000.92
2024-05-22 01:33:00,SystemResetWarning,0827.2,5.01,000.00,027.3,026.6,000.0,035.7,029.1,011.5,0000.0,0001.78,0001.15,0000.93
2024-05-22 01:34:00,SystemResetWarning,0827.2,5.02,000.00,027.3,026.5,000.0,035.7,029.1,011.5,0000.0,0001.80,0001.17,0000.95
2024-05-22 01:35:00,SystemResetWarning,0827.2,5.00,000.00,027.3,026.5,000.0,035.7,029.1,011.8,0000.0,0001.81,0001.19,0000.96
2024-05-22 01:36:00,SystemResetWarning,0827.2,5.00,000.00,027.3,026.5,000.0,035.7,029.0,011.4,0000.0,0002.07,0001.24,0000.98
2024-05-22 01:37:00,SystemResetWarning,0827.3,4.99,000.00,027.2,026.4,000.0,035.7,028.9,011.1,0000.0,0002.55,0001.25,0000.99
2024-05-22 01:38:00,SystemResetWarning,0827.3,5.00,000.00,027.2,026.4,000.0,035.7,028.9,011.0,0000.0,0002.56,0001.29,0001.00
2024-05-22 01:39:00,SystemResetWarning,0827.3,5.00,000.00,027.2,026.4,000.0,035.7,028.9,011.3,0000.0,0002.63,0001.33,0001.03
2024-05-22 01:40:00,SystemResetWarning,0827.3,5.00,000.00,027.2,026.3,000.0,035.7,028.8,011.2,0000.0,0002.80,0001.37,0001.04
2024-05-22 01:41:00,SystemResetWarning,0827.4,5.01,000.00,027.1,026.3,000.0,035.7,028.8,011.3,0000.0,0003.07,0001.41,0001.06
2024-05-22 01:42:00,SystemResetWarning,0827.4,5.01,000.00,027.1,026.3,000.0,035.7,028.8,011.5,0000.0,0003.08,0001.43,0001.08
2024-05-22 01:43:00,SystemResetWarning,0827.4,5.00,000.00,027.1,026.2,000.0,035.6,028.7,012.4,0000.0,0003.16,0001.48,0001.09
2024-05-22 01:44:00,SystemResetWarning,0827.4,5.00,000.00,027.0,026.1,000.0,035.6,028.6,013.0,0000.0,0003.14,0001.48,0001.09
2024-05-22 01:45:00,SystemResetWarning,0827.4,5.00,000.00,027.0,026.1,000.0,035.6,028.6,012.9,0000.0,0003.12,0001.47,0001.09
2024-05-22 01:46:00,SystemResetWarning,0827.3,5.00,000.00,027.0,026.0,000.0,035.6,028.6,011.4,0000.0,0003.08,0001.46,0001.09
2024-05-22 01:47:00,SystemResetWarning,0827.4,5.00,000.00,027.0,026.0,000.0,035.6,028.6,011.2,0000.0,0002.87,0001.44,0001.10
2024-05-22 01:48:00,SystemResetWarning,0827.4,5.00,000.00,027.0,026.0,000.0,035.5,028.7,011.2,0000.0,0002.51,0001.44,0001.10
2024-05-22 01:49:00,SystemResetWarning,0827.4,5.00,000.00,027.0,026.1,000.0,035.5,028.7,011.2,0000.0,0002.62,0001.42,0001.10
2024-05-22 01:50:00,SystemResetWarning,0827.6,5.00,000.00,027.0,026.1,000.0,035.5,028.8,011.4,0000.0,0002.60,0001.41,0001.10
2024-05-22 01:51:00,SystemResetWarning,0827.7,5.00,000.00,027.0,026.2,000.0,035.5,028.8,011.5,0000.0,0002.55,0001.41,0001.11
2024-05-22 01:52:00,SystemResetWarning,0827.7,5.00,000.00,027.0,026.2,000.0,035.5,028.8,011.4,0000.0,0002.25,0001.38,0001.11
2024-05-22 01:53:00,SystemResetWarning,0827.8,5.00,000.00,027.0,026.2,000.0,035.5,028.8,011.8,0000.0,0002.25,0001.36,0001.11
2024-05-22 01:54:00,SystemResetWarning,0827.7,4.99,000.00,027.0,026.2,000.0,035.5,028.8,012.4,0000.0,0002.27,0001.34,0001.11
2024-05-22 01:55:00,SystemResetWarning,0827.7,5.00,000.00,027.0,026.3,000.0,035.4,028.8,010.8,0000.0,0002.59,0001.35,0001.11
2024-05-22 01:56:00,SystemResetWarning,0827.7,5.00,000.00,027.0,026.3,000.0,035.4,028.9,010.6,0000.0,0003.41,0001.35,0001.11
2024-05-22 01:57:00,SystemResetWarning,0827.7,5.00,000.00,027.1,026.3,000.0,035.4,028.9,010.8,0000.0,0003.39,0001.34,0001.10
2024-05-22 01:58:00,SystemResetWarning,0827.7,5.00,000.00,027.1,026.3,000.0,035.4,028.9,010.9,0000.0,0003.37,0001.32,0001.10
2024-05-22 01:59:00,SystemResetWarning,0827.7,5.00,000.00,027.1,026.3,000.0,035.5,028.9,010.9,0000.0,0003.31,0001.36,0001.10
